Terminal Aerodrome Forecast
Issued by NWS Charleston, WV

Current Version | Previous Version | Text Only | Print | Product List | Glossary Off
Versions: 1 2 3 4 5 6 7 8 9 10 11 12 13 14 15 16 17 18 19 20 21 22 23 24

000
FTUS41 KRLX 190539
TAFBKW
TAF
KBKW 190539Z 1906/2006 15012G20KT P6SM BKN150
     FM190800 15011G18KT 4SM -RA OVC025
     FM191100 15010G16KT 4SM -RA OVC015
     FM191400 17010KT P6SM BKN015
     FM191600 18009KT P6SM BKN040=

USA.gov is the U.S. government's official web portal to all federal, state and local government web resources and services.